EW5773 Weather Reports


Display with metric or nautical units.
time (UTC)temp
F
wind
direction
speed
MPH
gust
MPH
rain 1hr
in
rain 24hr
in
rain mn
in
humidity
%
barometer
mb
20260902210007 68 223 0.0 4.0 0.00 0.00 0.00 63 1021.3
20260902204512 69 223 0.0 4.0 0.00 0.00 0.00 61 1021.1
20260902203008 69 227 3.0 5.0 0.00 0.00 0.00 60 1021.0
20260902201503 69 230 2.0 3.0 0.00 0.00 0.00 59 1021.0
20260902200004 70 231 1.0 4.0 0.00 0.00 0.00 58 1020.8
20260902194503 70 231 0.0 3.0 0.00 0.00 0.00 58 1020.8
20260902193004 71 231 0.0 2.0 0.00 0.00 0.00 57 1020.8
20260902191504 71 231 1.0 3.0 0.00 0.00 0.00 56 1020.8
20260902190005 72 231 1.0 3.0 0.00 0.00 0.00 55 1020.7
20260902184605 72 231 2.0 4.0 0.00 0.00 0.00 54 1020.7
20260902183112 73 232 1.0 4.0 0.00 0.00 0.00 53 1020.6
20260902181517 74 230 1.0 5.0 0.00 0.00 0.00 51 1020.6
20260902180016 75 232 3.0 8.0 0.00 0.00 0.00 49 1020.7
20260902174523 75 235 3.0 10.0 0.00 0.00 0.00 48 1020.5
20260902173023 76 225 5.0 11.0 0.00 0.00 0.00 47 1020.5
20260902171512 76 242 4.0 10.0 0.00 0.00 0.00 47 1020.6
20260902170013 77 226 4.0 11.0 0.00 0.00 0.00 46 1020.4
20260902164520 77 246 4.0 10.0 0.00 0.00 0.00 47 1020.5
20260902163041 78 188 3.0 10.0 0.00 0.00 0.00 46 1020.5
20260902161510 78 259 6.0 12.0 0.00 0.00 0.00 44 1020.6
20260902160010 78 242 6.0 10.0 0.00 0.00 0.00 44 1020.7
20260902154508 78 228 5.0 15.0 0.00 0.00 0.00 45 1020.7
20260902153009 78 129 4.0 10.0 0.00 0.00 0.00 46 1020.7
20260902151505 77 230 8.0 12.0 0.00 0.00 0.00 44 1020.9
20260902150006 78 223 6.0 11.0 0.00 0.00 0.00 46 1021.0
20260902144502 78 213 4.0 11.0 0.00 0.00 0.00 45 1021.0
20260902143004 77 194 4.0 10.0 0.00 0.00 0.00 46 1020.9
20260902141503 78 219 5.0 11.0 0.00 0.00 0.00 45 1020.9
20260902134501 77 225 4.0 12.0 0.00 0.00 0.00 46 1021.0
20260902133010 77 233 0.0 10.0 0.00 0.00 0.00 45 1021.2
20260902131514 76 198 6.0 10.0 0.00 0.00 0.00 47 1021.4
20260902130016 75 142 3.0 10.0 0.00 0.00 0.00 49 1021.4
20260902124517 76 123 2.0 8.0 0.00 0.00 0.00 47 1021.4
20260902123013 75 298 3.0 8.0 0.00 0.00 0.00 48 1021.5
20260902121613 75 220 3.0 8.0 0.00 0.00 0.00 49 1021.6
20260902120009 75 165 3.0 10.0 0.00 0.00 0.00 48 1021.8
20260902114510 75 229 5.0 10.0 0.00 0.00 0.00 49 1021.9
20260902113008 74 317 5.0 9.0 0.00 0.00 0.00 49 1021.8
20260902111506 75 209 3.0 7.0 0.00 0.00 0.00 49 1022.0
20260902110016 73 135 1.0 10.0 0.00 0.00 0.00 51 1021.9
20260902104513 74 224 0.0 10.0 0.00 0.00 0.00 51 1022.2
20260902103010 73 131 3.0 8.0 0.00 0.00 0.00 51 1022.2
20260902101504 72 198 2.0 5.0 0.00 0.00 0.00 52 1022.4
20260902100007 72 198 2.0 7.0 0.00 0.00 0.00 53 1022.2
20260902094521 72 278 1.0 4.0 0.00 0.00 0.00 55 1022.2
20260902093021 72 279 2.0 7.0 0.00 0.00 0.00 55 1022.3
20260902091519 72 13 1.0 3.0 0.00 0.00 0.00 57 1022.2
20260902090024 71 338 0.0 0.0 0.00 0.00 0.00 59 1022.1
20260902084518 70 337 0.0 0.0 0.00 0.00 0.00 62 1021.9
20260902083051 69 337 0.0 0.0 0.00 0.00 0.00 66 1021.9
20260902081512 66 337 0.0 0.0 0.00 0.00 0.00 72 1021.8
20260902080010 64 337 1.0 2.0 0.00 0.00 0.00 77 1021.8
20260902074508 62 337 1.0 4.0 0.00 0.00 0.00 81 1021.7
20260902073006 60 336 2.0 4.0 0.00 0.00 0.00 83 1021.4
20260902071507 59 334 2.0 3.0 0.00 0.00 0.00 85 1021.5
20260902070008 57 334 0.0 2.0 0.00 0.00 0.00 88 1021.4
20260902064509 56 334 0.0 2.0 0.00 0.00 0.00 88 1021.3
20260902063013 55 334 0.0 3.0 0.00 0.00 0.00 89 1021.1
20260902061550 54 334 1.0 3.0 0.00 0.00 0.00 89 1021.1
20260902060037 54 334 2.0 3.0 0.00 0.00 0.00 88 1021.1
20260902054531 54 333 0.0 3.0 0.00 0.00 0.00 88 1021.1
20260902053029 54 332 1.0 2.0 0.00 0.00 0.00 88 1021.1
20260902051527 54 331 2.0 4.0 0.00 0.00 0.00 87 1021.1
20260902050022 54 331 1.0 3.0 0.00 0.00 0.00 87 1020.9
20260902044536 54 331 0.0 0.0 0.00 0.00 0.00 86 1021.0
20260902043015 54 331 0.0 0.0 0.00 0.00 0.00 86 1020.9
20260902041515 55 331 0.0 2.0 0.00 0.00 0.00 85 1020.8
20260902040016 55 331 0.0 1.0 0.00 0.00 0.00 85 1020.8
20260902034513 55 331 0.0 1.0 0.00 0.00 0.00 85 1020.9
20260902033010 55 331 0.0 0.0 0.00 0.00 0.00 84 1020.9
20260902031526 55 331 0.0 1.0 0.00 0.00 0.00 84 1020.9
20260902030008 55 331 0.0 1.0 0.00 0.00 0.00 83 1021.1
20260902024506 56 331 1.0 3.0 0.00 0.00 0.00 83 1021.0
20260902023014 56 331 0.0 4.0 0.00 0.00 0.00 83 1021.0
20260902021506 56 331 1.0 3.0 0.00 0.00 0.00 83 1020.9
20260902020005 56 331 1.0 4.0 0.00 0.00 0.00 82 1021.0
20260902014504 56 331 2.0 4.0 0.00 0.00 0.00 82 1020.9
20260902013003 56 331 1.0 5.0 0.00 0.00 0.00 82 1020.9
20260902011504 57 331 1.0 3.0 0.00 0.00 0.00 81 1020.9
20260902010106 57 331 0.0 0.0 0.00 0.00 0.00 80 1021.0
20260902004519 57 331 0.0 0.0 0.00 0.00 0.00 80 1021.0
20260902003017 57 331 0.0 3.0 0.00 0.00 0.00 80 1021.2
20260902001515 57 331 2.0 3.0 0.00 0.00 0.00 80 1021.4
20260902000014 58 331 2.0 4.0 0.00 0.00 0.00 79 1021.2
20260901234514 58 331 3.0 5.0 0.00 0.00 0.00 79 1021.2
20260901233014 58 331 2.0 4.0 0.00 0.00 0.00 78 1021.2
20260901231514 59 329 3.0 4.0 0.00 0.00 0.00 78 1021.2
20260901230008 59 329 1.0 3.0 0.00 0.00 0.00 77 1021.4
20260901224510 59 329 2.0 5.0 0.00 0.00 0.00 76 1021.4
20260901223005 60 329 2.0 5.0 0.00 0.00 0.00 75 1021.3
20260901221504 60 329 1.0 4.0 0.00 0.00 0.00 74 1021.2
20260901220004 60 329 1.0 5.0 0.00 0.00 0.00 73 1021.2
20260901214519 60 327 2.0 5.0 0.00 0.00 0.00 72 1021.3
20260901213026 61 328 2.0 5.0 0.00 0.00 0.00 70 1021.2
20260901211516 62 328 2.0 4.0 0.00 0.00 0.00 69 1021.3